EW9824 Weather Reports


time (UTC)temp
F
wind
direction
speed
knots
gust
knots
rain 1hr
in
rain 24hr
in
rain mn
in
humidity
%
barometer
mb
20260903091530 46 155 2.6 6.1 0.00 0.35 0.00 97 1012.9
20260903090030 46 169 2.6 6.1 0.00 0.35 0.00 97 1013.1
20260903084529 46 153 1.7 3.5 0.00 0.35 0.00 97 1013.1
20260903083108 46 160 1.7 3.5 0.00 0.35 0.00 97 1013.0
20260903081531 46 168 2.6 6.1 0.00 0.35 0.00 97 1013.0
20260903080030 46 164 1.7 4.3 0.00 0.35 0.00 97 1012.9
20260903074532 46 166 1.7 5.2 0.00 0.35 0.00 96 1012.7
20260903073031 47 205 0.0 2.6 0.00 0.35 0.00 96 1012.5
20260903071530 47 158 0.9 3.5 0.00 0.35 0.00 96 1012.6
20260903070029 46 129 0.0 2.6 0.00 0.35 0.00 96 1012.5
20260903064603 47 306 0.0 2.6 0.00 0.35 0.35 95 1012.5
20260903061531 47 45 0.9 3.5 0.00 0.35 0.35 95 1012.8
20260903060031 48 309 0.9 3.5 0.00 0.35 0.35 94 1012.8
20260903054531 49 76 2.6 5.2 0.00 0.35 0.35 94 1012.7
20260903053029 49 15 1.7 3.5 0.00 0.35 0.35 93 1012.6
20260903051603 50 36 2.6 7.0 0.00 0.35 0.35 94 1012.5
20260903050030 50 25 2.6 5.2 0.00 0.35 0.35 94 1012.6
20260903044530 50 24 3.5 7.0 0.00 0.35 0.35 95 1012.5
20260903043029 50 101 1.7 5.2 0.00 0.35 0.35 96 1012.3
20260903041531 51 120 1.7 6.1 0.01 0.35 0.35 96 1012.2
20260903040029 51 135 0.9 5.2 0.03 0.35 0.35 95 1011.9
20260903034530 51 145 1.7 3.5 0.05 0.35 0.35 95 1011.9
20260903033031 52 103 0.9 3.5 0.08 0.35 0.34 95 1011.8
20260903031531 53 93 1.7 4.3 0.09 0.34 0.32 95 1011.9
20260903030031 54 156 1.7 4.3 0.10 0.32 0.30 96 1011.9
20260903024606 54 119 2.6 6.1 0.10 0.30 0.27 96 1011.7
20260903023106 55 48 0.9 4.3 0.07 0.27 0.25 96 1011.7
20260903021528 56 331 0.9 4.3 0.06 0.25 0.22 96 1011.6
20260903020030 56 300 3.5 7.8 0.05 0.22 0.20 96 1011.1
20260903014531 56 305 2.6 5.2 0.04 0.20 0.20 95 1010.6
20260903013027 56 263 0.0 3.5 0.05 0.20 0.19 95 1010.7
20260903011531 56 239 1.7 2.6 0.06 0.19 0.17 95 1010.8
20260903010031 56 256 1.7 4.3 0.06 0.17 0.16 95 1010.8
20260903004531 57 276 2.6 6.1 0.06 0.16 0.15 94 1010.9
20260903003032 57 317 2.6 6.1 0.05 0.15 0.13 94 1010.8
20260903001606 57 299 1.7 5.2 0.03 0.13 0.11 93 1010.9
20260903000112 57 275 0.0 3.5 0.01 0.11 0.10 94 1010.9
20260902234540 57 296 1.7 4.3 0.01 0.10 0.10 93 1010.8
20260902231644 57 348 2.6 6.1 0.02 0.10 0.10 93 1011.1
20260902230034 56 319 1.7 4.3 0.03 0.10 0.09 93 1011.2
20260902224528 57 7 2.6 4.3 0.03 0.09 0.08 93 1011.0
20260902223032 56 324 1.7 5.2 0.03 0.08 0.08 92 1010.9
20260902221532 57 314 3.5 7.8 0.04 0.08 0.07 91 1010.9
20260902220029 56 269 1.7 5.2 0.04 0.07 0.06 90 1010.8
20260902211532 57 356 0.9 3.5 0.04 0.04 0.03 86 1010.6
20260902204534 57 50 0.9 3.5 0.01 0.01 0.00 81 1010.8
20260902201530 59 199 0.0 3.5 0.00 0.00 0.00 76 1011.1
20260902200029 59 210 1.7 5.2 0.00 0.00 0.00 74 1010.9
20260902194531 59 259 1.7 5.2 0.00 0.00 0.00 72 1010.9
20260902193032 59 240 1.7 6.1 0.00 0.00 0.00 70 1010.9
20260902191532 60 158 0.9 4.3 0.00 0.00 0.00 69 1010.8
20260902190030 60 122 2.6 7.8 0.00 0.00 0.00 73 1010.9
20260902184530 61 344 1.7 4.3 0.00 0.00 0.00 72 1011.1
20260902183107 61 303 0.9 4.3 0.00 0.00 0.00 72 1011.1
20260902181609 61 303 1.7 4.3 0.00 0.00 0.00 72 1010.9
20260902180106 60 285 0.9 3.5 0.00 0.00 0.00 73 1010.9
20260902174531 60 298 1.7 6.1 0.00 0.00 0.00 73 1010.9
20260902173032 61 303 3.5 7.8 0.00 0.00 0.00 72 1010.9
20260902171529 61 291 3.5 6.1 0.00 0.00 0.00 73 1011.0
20260902170029 60 334 3.5 6.1 0.00 0.00 0.00 74 1011.2
20260902164529 59 307 3.5 6.1 0.00 0.00 0.00 74 1011.4
20260902163106 59 334 1.7 5.2 0.00 0.00 0.00 73 1011.7
20260902161532 58 35 0.9 4.3 0.00 0.00 0.00 74 1011.9
20260902154529 55 135 0.0 1.7 0.00 0.00 0.00 81 1012.1
20260902153029 54 141 0.9 4.3 0.00 0.00 0.00 84 1012.3
20260902151530 52 208 0.9 2.6 0.00 0.00 0.00 87 1012.1
20260902150029 51 187 0.9 2.6 0.00 0.00 0.00 88 1012.2
20260902143032 49 198 1.7 3.5 0.00 0.00 0.00 89 1012.3
20260902130032 49 61 1.7 3.5 0.00 0.00 0.00 82 1012.6
20260902124532 51 165 1.7 5.2 0.00 0.00 0.00 80 1012.8
20260902123106 52 3 2.6 6.1 0.00 0.00 0.00 79 1012.7
20260902121531 52 29 2.6 6.1 0.00 0.00 0.00 77 1012.9
20260902120029 54 33 0.9 4.3 0.00 0.00 0.00 74 1012.9
20260902113030 55 334 4.3 9.6 0.00 0.00 0.00 73 1012.9
20260902111531 55 332 4.3 8.7 0.00 0.00 0.00 73 1012.9
20260902110030 55 340 4.3 9.6 0.00 0.00 0.00 74 1013.0
20260902104527 55 344 3.5 8.7 0.00 0.00 0.00 74 1013.1
20260902103029 56 5 2.6 6.1 0.00 0.00 0.00 74 1013.3
20260902101531 56 356 4.3 11.3 0.00 0.00 0.00 73 1013.4
20260902100033 57 330 5.2 10.4 0.00 0.00 0.00 71 1013.4
20260902094531 57 302 5.2 15.6 0.00 0.00 0.00 70 1013.5
20260902093031 57 303 6.1 12.2 0.00 0.00 0.00 70 1013.7